Location: Biltmore Gardens
(41.6070°N, 83.4666°W)
Time: 13:52:20
(UTC+00:00)

Cosmos 2221 - Pass Details

Date: 14 July 2020
Orbit: 592 x 616 km, 82.5° (Epoch: 04 August)

Event Time Altitude Azimuth Distance (km) Brightness Sun altitude
Rises 03:26:51 0° 341° (NNW) 2,879 7.4 -19.7°
Reaches altitude 10° 03:29:17 10° 331° (NNW) 1,966 6.4 -19.9°
Maximum altitude 03:33:04 30° 270° (W) 1,097 4.1 -20.3°
Enters shadow 03:35:29 18° 221° (SW) 1,510 4.4 -20.5°
